Current weather by "City, St" or "zip code"  
 

Current Conditions: WALLA WALLA

Cloudy


57.9 F

Last Updated on Jun 17 2024, 08:53 PM PDT
Humidity: 60%
Wind Speed: S 13.9 mph
Barometer 29.95 in
Dewpoint: 44.1 F
Visibility: 10.00 mi
Precip: --
Heat Index: NA
Wind Chill: NA
Current conditions at:

WALLA WALLA (KALW)

Lat: 46.09 Lon: 118.29

active severe weather and emergency alerts image image weather storm and storm spotter reports image weather observation monitoring service image
Active
Alerts
Storm Reports Obs
Monitoring

Sign-up For Email & Text Message Weather Alert Notification Services



Advertise Here

Observation History for WALLA WALLA


Time Wind
(mph)
Vis
(mi)
Weather Precip (in) Temperature (F) Relative
Humidity
Wind
Chill
(F)
Heat
Index
(F)
Pressure
Air Dwpt altimeter
(in)
sea level
(mb)
Rmks
08:53 PM PDT S 13.9 10.00 Cloudy -- 57.9 44.1 60% NA NA 29.95 1014.2
07:53 PM PDT SW 18.3 10.00 Mostly Cloudy Trace 60.1 43.0 53% NA NA 29.92 1013.2
06:53 PM PDT 10.00 Cloudy -- 64.9 42.1 43% NA NA 29.90 1012.5
05:53 PM PDT 10.4 10.00 Cloudy -- 64.9 39.0 38% NA NA 29.89 1012.2
04:53 PM PDT 12.8 10.00 Mostly Cloudy -- 66.0 37.9 36% NA NA 29.91 1012.9
03:53 PM PDT 12.8 10.00 Cloudy -- 64.0 37.9 38% NA NA 29.91 1012.9
02:53 PM PDT W 13.9 10.00 Cloudy -- 64.9 36.0 34% NA NA 29.90 1012.5
01:53 PM PDT SW 12.7 10.00 Mostly Cloudy -- 64.0 35.1 34% NA NA 29.91 1012.9
12:53 PM PDT 10.00 Cloudy -- 62.1 36.0 38% NA NA 29.92 1013.2
11:53 AM PDT SW 10.4 10.00 Cloudy -- 59.0 37.0 44% NA NA 29.92 1013.2
08:53 AM PDT 11.5 10.00 Partly Cloudy -- 52.0 39.0 61% NA NA 29.93 1013.5
05:53 AM PDT S 10.4 10.00 Cloudy -- 46.9 39.0 74% 42.1 NA 29.91 1012.9
04:53 AM PDT S 10.3 10.00 NULL -- 46.9 39.9 76% 42.1 NA 29.89 1012.2
03:53 AM PDT S 10.4 10.00 Mostly Cloudy -- 48.0 39.0 71% 43.5 NA 29.88 1011.9
02:53 AM PDT S 9.2 10.00 Clear -- 48.9 39.0 69% 45.0 NA 29.87 1011.5
01:53 AM PDT S 8.1 10.00 Mostly Clear -- 50.0 39.0 66% NA NA 29.88 1011.9
12:53 AM PDT S 11.4 10.00 Partly Cloudy -- 51.1 39.9 65% NA NA 29.87 1011.5
11:53 PM PDT S 12.8 10.00 Mostly Clear -- 52.0 39.0 61% NA NA 29.86 1011.2
10:53 PM PDT 11.5 10.00 Partly Cloudy -- 52.0 37.9 59% NA NA 29.86 1011.2
09:53 PM PDT E 8.1 10.00 Clear -- 50.0 42.1 74% NA NA 29.85 1010.8
08:53 PM PDT 0.0 10.00 Clear -- 57.0 34.0 42% NA NA 29.84 1010.5
06:53 PM PDT 8.1 10.00 Clear -- 62.1 35.1 36% NA NA 29.85 1010.8
05:53 PM PDT 5.8 10.00 Clear -- 62.1 34.0 35% NA NA 29.86 1011.2
04:53 PM PDT 4.6 10.00 Clear -- 62.1 35.1 36% NA NA 29.89 1012.2

Regional Weather Observation


PASCO (KPSC)

Cloudy
64.0 F

RICHLAND (KRLD)

Cloudy
65.3 F

PENDLETON (KPDT)

Mostly Cloudy
55.0 F

MEACHAM (KMEH)

Heavy Rain and Fog/Mist
43.0 F

HERMISTON (KHRI)

Clear
60.1 F

LEWISTON (KLWS)

Light Rain
55.0 F

Advertise Here


Advertise Here